Regional Weather Roundup
Issued by NWS

Home | Current Version | Previous Version | Text Only | Print | Product List | Glossary Off
Versions: 1 2 3 4 5 6 7 8 9 10 11 12 13 14 15 16 17 18 19 20 21 22 23 24 25 26 27 28 29 30 31 32 33 34 35 36 37 38 39 40 41 42 43 44 45 46 47 48 49 50

000
ASUS45 KBOU 200107
RWRCO

WEATHER ROUNDUP FOR COLORADO
NATIONAL WEATHER SERVICE DENVER/BOULDER CO
700 PM MDT TUE AUG 19 2014

NOTE: "FAIR" INDICATES FEW OR NO CLOUDS BELOW 12000 FEET WITH NO
SIGNIFICANT WEATHER AND/OR OBSTRUCTIONS TO VISIBILITY.

COZ001>005-013-030-031-200200-
...NORTHWEST COLORADO...

CITY           SKY/WX    TMP DP  RH WIND       PRES   REMARKS
CRAIG          CLOUDY    72  49  44 CALM      30.00
HAYDEN         PTSUNNY   68  46  45 CALM      30.02F
MEEKER         CLOUDY    67  53  61 CALM      30.01F
MOUNT WERNER   NOT AVBL
STEAMBOAT SPGS PTSUNNY   66  51  59 CALM      30.04F
WALDEN         MOCLDY    64  41  42 W7        30.11S
$$

COZ006>008-011-200200-
...WEST CENTRAL VALLEYS...

CITY           SKY/WX    TMP DP  RH WIND       PRES   REMARKS
GRAND JUNCTION PTSUNNY   70  54  56 W10       29.92R
MONTROSE       HVY RAIN  66  57  72 E3        30.03R
EAGLE          MOSUNNY   70  46  43 VRB7      30.02S
RIFLE          PTSUNNY   77  49  37 W14       29.90F
DELTA          NOT AVBL
NUCLA          CLOUDY    68  50  52 SW12G21   30.07R
$$

COZ017>023-064>068-200200-
...SOUTHWEST COLORADO...

CITY           SKY/WX    TMP DP  RH WIND       PRES   REMARKS
DURANGO        CLOUDY    71  45  39 W13       30.05S
CORTEZ         MOSUNNY   64  59  83 N6        30.07R
PAGOSA SPRINGS CLOUDY    62  46  55 N7        30.14F
TELLURIDE      CLOUDY    61  46  59 W6        30.20S
WOLF CREEK PAS NOT AVBL
$$

COZ009-010-012-014-032>034-037-058>063-200200-
...CENTRAL COLORADO...

CITY           SKY/WX    TMP DP  RH WIND       PRES   REMARKS
ASPEN          PTCLDY    65  49  56 SE3       30.08F
BUENA VISTA    MOCLDY    64  46  51 W3        30.12F
COPPER MTN     MOCLDY    52  41  66 SE6       30.41F
BERTHOUD PASS  FAIR      41  41 100 W10G21    30.45F THUNDER
COTTONWOOD PAS MOCLDY    59  45  58 CALM      30.27S
GUNNISON       CLOUDY    66  46  48 N5        30.11S
KREMMLING      CLOUDY    66  41  39 NE3       30.09F
LEADVILLE      MOCLDY    54  43  66 N7        30.24F
MONARCH PASS   CLOUDY    50  37  62 S10       30.51F
SALIDA         MOCLDY    64  54  68 SW3       30.17S
SUNLIGHT       CLOUDY    55  45  67 NW3       30.31F
WILKERSON PASS MOCLDY    52  37  58 S9        30.40S
$$

COZ069>075-200200-
...SAN LUIS VALLEY/SANGRE DE CRISTO MOUNTAINS...

CITY           SKY/WX    TMP DP  RH WIND       PRES   REMARKS
ALAMOSA        CLOUDY    71  40  32 SW13      30.05F
LA VETA PASS   CLOUDY    59  37  44 S7        30.30R
SAGUACHE       CLOUDY    68  45  42 SE5       30.10S
$$

COZ035-036-038>040-200200-
...NORTHERN COLORADO FRONT RANGE...

CITY           SKY/WX    TMP DP  RH WIND       PRES   REMARKS
DENVER INTL AP CLOUDY    71  52  50 NE9       29.91F
DMNS CITY PARK   N/A     73  51  45 S9        29.93R
AURORA         MOCLDY    67  58  73 S7        29.96S
FRONT RANGE AP NOT AVBL
ERIE MUNI ARPT CLOUDY    76  46  34 S8        29.91S
BOULDER MUN AP CLOUDY    77  45  31 S7        29.91S
CENTENNIAL     MOCLDY    69  55  60 S6        29.97S
BROOMFIELD     NOT AVBL
FORT COLLINS   MOCLDY    79  48  34 SE9       29.90R
LONGMONT       MOCLDY    78  48  34 SE6       29.90S
$$

COZ041-046-047-076>085-087-088-200200-
...PIKES PEAK/PALMER DIVIDE AND SOUTHERN FOOTHILLS...

CITY           SKY/WX    TMP DP  RH WIND       PRES   REMARKS
COLO. SPRINGS  MOCLDY    73  47  39 W9        30.02R
A. F. ACADEMY  LGT RAIN  70  46  43 W13G29    30.05R
ELLICOTT       MOCLDY    75  49  39 W5        29.98R
FALCON         MOCLDY    71  45  40 W9        30.06R
FORT CARSON    CLOUDY    72  54  53 N10       29.96F
LIMON          LGT RAIN  73  48  41 N24G31    29.90S
MONUMENT HILL  MOCLDY    66  46  48 W9        30.05F
TRINIDAD       CLOUDY    73  50  44 W7        29.96F
$$

COZ042>045-048>051-090-091-200200-
...NORTHEAST COLORADO...

CITY           SKY/WX    TMP DP  RH WIND       PRES   REMARKS
GREELEY ARPT   MOCLDY    77  50  38 S10       29.90R
AKRON          LGT RAIN  65  59  81 N7        29.89R
BURLINGTON     MOCLDY    85  47  26 SW29G41   29.82R HAZE
WRAY             N/A     88  57  35 E9        29.75S
STERLING       CLOUDY    79  55  44 W32G46    29.86R
HOLYOKE        NOT AVBL
FORT MORGAN    CLOUDY    71  55  56 SW9       29.90S
$$

COZ086-089-092>099-200200-
...SOUTHEAST COLORADO...

CITY           SKY/WX    TMP DP  RH WIND       PRES   REMARKS
PUEBLO         CLOUDY    84  47  27 NW10      29.84S
LA JUNTA       MOCLDY    83  50  31 S13       29.83S
LAMAR          LGT RAIN  80  52  37 S24G32    29.81F
SPRINGFIELD      N/A     87  47  24 S16G25    29.86R
$$



USA.gov is the U.S. government's official web portal to all federal, state and local government web resources and services.